Theta_e
360 358 357 348 314 309 305 310 319 319 322 330 335 331 330 336 326 316 347 351 357 360 364 366 370 370 368 366 365 365 365 364 364 365 365 365 365 364 363 362 362 362 361 362 361 362 360 360 360
351 353 350 336 306 301 304 317 317 322 329 334 334 334 332 332 342 342 345 355 359 361 363 364 369 370 368 366 366 366 365 364 363 364 363 364 364 363 363 362 362 362 360 361 361 362 361 360 360
342 348 330 318 305 303 306 318 322 329 334 332 332 336 336 334 343 344 351 358 360 360 363 365 372 371 367 366 367 366 366 365 364 364 363 363 362 362 362 361 362 362 362 361 362 361 360 361 361
332 329 321 308 305 310 314 321 326 327 332 335 334 329 339 348 345 349 355 358 359 360 363 369 371 369 367 366 366 366 365 364 364 364 363 362 362 361 361 361 361 360 359 360 361 361 359 361 360
331 321 310 308 308 314 321 326 327 324 330 332 335 329 332 346 351 352 353 356 357 360 364 366 370 370 369 367 366 365 365 364 364 364 364 363 362 362 361 360 360 359 359 359 360 360 360 359 360
320 319 308 305 311 316 323 326 328 329 332 332 332 330 332 347 348 350 354 354 360 360 362 364 369 370 368 366 365 365 365 365 364 365 364 362 363 364 361 361 358 358 359 359 359 359 360 358 360
319 314 308 310 312 316 319 327 327 328 330 331 335 327 335 342 347 351 353 355 358 360 361 362 363 364 367 366 365 365 365 365 364 363 362 363 363 362 361 360 360 358 358 359 357 358 359 358 360
323 315 311 313 311 311 320 325 331 330 330 339 338 327 327 341 349 353 353 353 354 356 357 356 358 358 359 361 367 366 366 364 363 363 363 363 362 361 361 363 364 360 359 359 354 357 357 357 359
323 310 308 310 313 313 319 324 332 336 333 337 337 335 339 346 351 347 346 346 348 353 352 353 353 354 355 357 361 365 365 364 362 362 364 362 355 356 358 360 361 361 359 359 359 358 357 359 357
313 305 310 316 317 316 323 329 331 330 331 332 335 344 347 348 345 342 342 342 344 346 349 351 351 352 353 359 355 356 355 355 355 356 354 354 353 353 355 360 361 360 361 359 359 360 359 357 351
315 308 314 318 321 321 322 327 327 330 326 330 332 340 344 344 343 340 341 342 342 345 348 350 351 351 352 354 352 353 352 352 352 352 351 350 352 351 352 353 354 352 358 353 356 354 354 351 350
312 315 318 317 318 318 320 324 326 326 328 336 339 344 343 342 341 341 341 342 343 344 346 349 349 350 350 352 351 351 351 351 350 351 351 350 349 349 347 349 350 350 351 350 349 350 351 349 350
313 315 315 317 314 318 324 322 323 325 335 339 340 342 341 341 342 343 344 345 345 343 346 348 349 349 351 352 352 352 351 352 351 352 352 349 347 346 346 347 349 350 348 349 347 348 348 348 349
311 313 311 312 314 319 319 320 325 327 337 336 337 337 339 340 341 342 344 344 345 346 347 349 350 349 348 347 347 346 347 348 349 350 350 350 349 346 345 345 344 345 346 347 346 344 346 346 346
309 307 309 310 312 314 320 317 319 330 336 334 335 336 338 339 341 339 342 343 346 347 349 347 343 344 342 340 339 338 340 341 343 347 350 350 348 346 345 343 340 341 342 345 344 342 342 342 342
303 301 299 308 310 314 315 308 320 333 333 332 334 335 337 338 339 340 341 343 345 346 343 344 348 347 346 342 340 340 339 337 339 341 345 347 346 347 345 345 343 342 340 338 340 339 337 337 336
298 294 297 302 310 312 310 305 319 331 332 330 333 334 335 336 337 339 342 342 344 345 342 347 341 345 344 341 338 336 337 336 340 343 346 348 349 349 345 345 346 344 343 342 339 336 335 333 332
295 295 297 300 307 309 307 307 318 328 331 330 331 333 334 335 337 339 343 346 344 342 344 345 339 343 342 336 335 336 336 336 340 342 347 348 349 350 345 343 343 343 342 340 338 336 335 332 331
301 298 297 301 308 306 303 306 313 327 330 329 329 330 332 334 338 339 345 344 342 342 341 339 337 336 332 330 332 333 332 335 337 341 345 346 347 347 343 342 342 341 339 339 338 336 337 337 337
301 297 296 301 306 304 302 303 308 316 327 330 330 331 333 332 334 339 342 342 341 341 338 334 334 332 332 331 334 335 335 336 337 339 342 343 347 345 344 341 340 340 339 338 337 336 334 336 338
297 295 297 299 302 302 301 299 301 309 316 325 330 333 333 334 333 336 342 339 340 341 338 334 332 332 332 334 334 335 335 336 336 338 342 342 343 343 341 340 339 338 338 337 337 335 334 331 333
294 302 304 304 298 293 300 291 299 303 309 323 329 330 331 334 336 339 343 340 340 340 341 336 332 332 333 333 331 331 330 330 335 337 337 339 342 341 341 340 340 339 338 337 337 338 335 332 329
300 305 304 303 297 293 297 294 298 304 313 319 326 330 332 335 337 339 342 344 343 342 339 336 331 331 334 333 332 331 330 332 336 336 335 336 336 337 338 338 338 338 338 338 338 337 336 333 330
306 302 298 296 293 289 293 295 296 300 307 314 327 331 335 336 339 339 342 343 340 339 336 333 330 329 334 335 336 334 333 337 334 333 333 333 333 333 336 339 338 338 338 338 338 338 336 334 333
301 294 288 288 289 288 296 297 298 305 311 315 325 327 336 338 337 337 342 342 340 337 335 334 331 330 332 336 336 337 339 336 334 331 329 329 329 331 335 337 337 338 337 337 338 336 335 334 333
297 294 289 285 287 290 297 292 299 311 317 318 320 323 336 336 336 336 341 342 344 343 340 340 335 336 336 336 338 340 337 335 334 331 330 329 331 333 335 336 336 336 337 337 335 334 335 335 333
299 294 296 290 289 289 292 299 306 312 317 324 328 332 332 333 335 336 337 340 343 344 344 344 342 340 340 340 337 337 335 335 332 331 330 330 333 335 333 333 332 333 333 334 337 336 336 334 332
302 301 293 290 287 286 291 295 297 305 310 316 322 325 328 332 334 336 338 338 342 343 342 343 342 341 341 340 338 336 335 334 332 331 330 331 331 331 332 330 329 330 329 329 328 330 332 334 336
299 295 292 292 290 287 286 291 304 307 310 313 319 324 328 332 334 335 335 337 340 343 342 341 339 339 339 339 338 336 335 333 332 331 331 331 330 329 330 328 328 327 326 325 324 325 326 326 329
300 297 294 291 290 289 289 293 309 312 312 315 318 321 321 324 330 335 334 336 338 340 340 336 338 339 340 339 338 335 335 332 330 329 332 330 329 329 327 327 327 326 325 324 323 325 325 324 324
Wind_Speed
14 13 7 4 2 5 3 1 1 3 4 3 3 4 7 5 1 3 4 7 14 11 9 11 15 15 15 15 15 14 14 15 14 14 14 13 13 14 12 11 10 9 9 9 9 11 9 10 11
9 16 4 2 6 5 3 2 5 3 6 10 7 4 6 3 4 10 6 9 13 10 7 9 16 15 15 15 15 14 14 14 13 12 12 12 12 12 11 10 9 8 7 7 7 9 10 10 10
13 10 4 4 4 5 4 3 9 10 9 2 5 6 3 2 9 9 10 14 12 8 7 11 16 16 16 15 14 13 14 14 13 12 11 11 11 10 9 8 7 7 6 6 7 8 9 11 9
7 1 3 6 5 1 7 8 10 10 4 7 8 7 5 3 9 8 15 15 12 9 8 13 16 17 16 15 15 14 13 13 12 12 12 11 9 8 8 7 6 5 4 4 7 7 7 10 10
2 3 6 4 5 2 4 13 11 5 5 7 3 4 4 3 12 18 15 13 13 10 8 10 15 15 14 14 15 14 13 13 12 12 12 11 10 8 7 6 5 5 4 3 4 5 7 10 10
5 4 6 1 4 2 5 9 6 6 5 9 6 5 3 8 17 14 13 12 10 10 9 9 14 14 15 15 14 14 13 12 11 11 11 10 8 9 7 5 3 3 4 4 3 5 6 10 12
7 5 5 4 3 1 7 6 7 8 7 4 10 5 4 6 11 13 12 10 8 7 7 7 8 12 15 14 14 14 13 12 11 10 10 9 9 8 8 7 5 4 4 4 3 5 5 7 11
5 4 5 2 2 2 7 5 6 7 4 11 12 7 7 8 13 11 9 7 6 6 6 5 5 6 6 7 13 13 13 11 10 10 9 9 8 8 8 7 6 7 6 6 5 4 4 4 6
4 5 2 5 4 2 2 6 5 5 13 4 6 7 12 16 15 12 10 5 4 4 4 4 5 6 6 5 7 10 12 11 11 10 10 8 2 3 6 7 7 8 7 7 7 6 4 6 7
5 4 4 4 2 5 2 6 8 6 6 4 10 14 19 18 15 13 12 11 7 7 6 5 5 5 5 5 5 5 5 4 4 4 4 3 4 4 5 7 10 9 8 7 7 7 7 5 2
2 3 2 5 6 3 7 5 3 13 1 6 17 20 17 18 14 13 11 14 15 11 8 9 8 6 6 5 3 2 2 2 3 5 5 4 3 3 3 2 3 3 6 3 4 3 3 4 4
2 7 5 6 4 6 9 5 6 4 5 13 18 21 17 18 15 14 12 11 11 13 12 9 7 7 6 4 3 3 3 3 3 4 5 4 3 4 4 3 3 4 3 4 4 3 4 4 4
4 7 5 9 4 7 10 10 6 3 12 17 17 18 19 17 15 12 13 11 9 10 10 8 6 4 4 6 5 4 4 3 5 4 5 4 4 4 3 4 3 4 3 4 4 4 4 4 4
4 6 5 4 4 5 5 4 7 3 16 19 19 17 17 17 17 12 11 13 12 11 10 7 8 5 4 4 6 4 3 3 3 3 4 6 5 4 4 4 4 4 4 3 4 4 4 4 4
5 4 7 3 1 3 7 2 1 10 16 20 18 15 16 16 14 16 16 15 15 12 8 10 10 9 10 6 6 6 4 1 2 2 5 5 5 5 5 4 4 4 3 3 3 3 3 3 3
5 6 4 8 3 3 8 7 3 13 17 17 16 14 14 13 17 14 13 13 9 10 10 10 9 8 5 6 4 2 3 4 4 2 3 5 6 6 5 4 4 2 2 2 2 3 3 3 3
8 2 3 10 5 5 4 3 6 13 13 14 14 14 12 12 10 8 8 8 10 14 16 22 20 16 9 2 3 1 3 3 3 2 1 4 5 5 5 4 4 5 5 4 3 3 3 3 4
3 4 4 7 3 3 5 6 8 17 14 13 13 12 11 11 16 7 6 8 12 13 16 12 12 12 0 4 1 2 3 2 1 2 1 3 1 4 4 3 1 3 3 3 3 5 4 4 4
3 4 7 5 6 2 3 4 8 12 10 10 11 10 10 12 5 5 8 10 12 11 11 7 7 5 4 2 1 1 5 1 1 2 3 5 2 1 3 2 2 3 3 4 4 3 5 4 4
6 5 5 6 5 3 2 4 5 9 16 19 17 12 12 7 6 7 8 6 7 10 9 6 6 4 4 2 1 2 2 1 3 2 2 4 2 1 2 2 1 1 2 4 4 5 2 4 5
3 2 2 5 6 6 5 7 5 4 6 8 10 9 8 12 10 8 9 8 7 9 7 7 7 6 3 2 3 3 2 1 3 4 4 5 4 5 4 2 1 2 3 4 4 4 6 4 3
2 3 2 2 5 2 4 5 6 6 6 6 8 9 9 10 6 7 8 9 8 8 6 6 6 4 3 3 2 1 2 2 2 3 3 4 6 6 5 4 3 4 3 4 4 4 4 4 4
8 1 3 3 5 3 5 6 9 5 4 4 7 8 8 9 13 12 11 11 11 9 8 5 5 5 3 3 2 2 5 2 2 3 3 5 4 4 4 5 4 4 3 4 4 4 5 4 3
4 5 7 5 4 4 6 4 7 3 4 1 3 6 9 12 9 7 6 9 7 6 5 6 7 5 4 2 3 2 4 4 3 3 3 3 3 4 5 5 4 4 4 3 3 3 5 4 4
7 8 5 6 7 6 4 3 8 9 7 4 7 7 11 14 13 11 11 9 8 8 7 6 7 6 5 3 1 2 3 4 5 3 2 4 3 3 5 5 5 4 4 3 2 0 2 4 4
2 8 8 5 3 5 3 3 6 5 8 2 5 4 5 12 13 13 10 9 9 10 9 8 8 6 6 4 3 3 4 3 4 3 2 2 1 3 5 6 6 6 5 6 5 3 2 2 3
3 2 5 9 3 4 4 4 4 5 6 7 7 10 10 7 8 10 7 10 9 8 9 9 8 6 7 9 5 6 5 6 4 3 3 1 3 4 5 5 5 6 8 8 5 5 5 4 3
8 8 4 4 3 1 5 4 4 5 7 6 5 8 8 8 8 10 11 10 5 6 5 5 6 7 7 10 7 5 6 6 5 3 3 4 5 5 4 6 5 7 7 7 7 6 7 7 6
2 1 7 7 5 6 1 7 7 8 5 6 6 8 12 12 15 10 7 6 8 5 6 6 6 6 4 6 6 7 6 5 5 4 4 4 6 5 6 6 7 7 7 7 7 7 8 8 6
3 3 6 7 4 2 4 8 5 8 8 7 9 10 6 6 5 5 9 8 7 5 5 7 6 6 3 4 7 8 5 5 5 3 5 5 7 5 6 5 7 7 7 7 7 9 8 7 7
Wind_Direction
160 156 147 170 68 71 44 31 133 108 35 325 69 71 105 35 113 208 117 124 131 137 146 151 149 149 142 137 133 131 127 125 120 120 123 127 130 133 136 137 138 142 152 151 147 143 142 137 138
152 149 179 227 85 72 342 272 89 68 129 102 82 73 48 61 78 118 102 138 130 133 136 141 147 149 144 140 137 135 132 129 126 123 124 127 129 131 137 139 134 136 136 155 163 154 150 149 146
151 162 144 103 109 146 155 260 126 127 165 179 108 67 52 74 109 137 133 135 128 126 135 146 143 145 146 143 141 138 135 136 133 130 128 133 135 133 133 136 136 131 134 141 162 168 158 151 156
156 207 10 85 179 204 150 179 148 133 112 63 96 76 71 152 143 143 137 131 129 135 140 145 146 147 149 146 143 142 139 141 141 138 139 140 142 141 141 143 138 132 134 145 166 162 166 154 165
77 75 55 49 304 81 136 168 159 143 98 87 101 99 71 9 106 132 137 139 139 139 139 144 148 149 148 149 148 149 151 152 153 151 149 152 155 155 153 152 154 152 153 178 186 175 168 154 167
46 88 58 39 303 72 165 171 142 91 99 114 89 91 49 128 129 144 142 139 138 141 138 148 148 150 153 155 155 154 158 161 161 158 155 159 167 167 160 165 169 175 178 191 210 199 177 163 168
106 83 151 172 247 148 178 172 140 135 142 123 145 88 110 169 148 143 140 136 135 140 137 140 146 156 156 159 161 163 164 170 170 167 163 169 166 168 170 168 170 188 199 200 226 223 180 183 174
85 93 120 228 232 219 160 149 121 129 152 130 139 146 170 183 151 124 114 117 120 137 135 139 142 137 143 160 165 166 167 172 179 176 176 180 186 184 183 178 189 195 204 209 213 237 218 204 183
128 74 130 178 179 221 152 130 155 91 137 188 177 144 144 147 129 122 119 115 120 129 133 142 144 140 149 152 169 171 173 177 184 188 190 191 185 224 212 187 210 208 210 221 222 221 241 207 190
83 99 215 205 207 144 125 160 148 114 150 30 90 100 124 138 144 147 156 160 165 165 173 169 159 157 155 163 163 171 185 174 179 187 200 176 193 220 224 226 213 219 215 219 230 228 212 219 190
130 204 238 244 205 156 131 165 97 128 213 205 151 142 144 153 161 162 170 176 180 174 180 184 175 173 171 168 160 172 188 197 191 197 201 203 210 251 253 241 247 203 233 198 212 222 215 201 176
326 257 182 276 166 169 169 159 131 195 184 149 152 150 148 162 172 176 177 178 177 185 190 180 176 176 175 154 160 175 184 196 212 216 211 195 206 215 250 258 229 214 191 202 201 202 208 218 213
230 276 242 252 312 201 138 203 178 163 131 138 146 154 162 167 178 187 186 184 183 189 187 175 160 163 179 178 170 174 205 214 216 210 222 194 206 224 227 240 219 215 191 191 194 198 212 213 221
235 237 268 315 136 135 170 163 140 146 142 147 159 168 172 175 182 179 185 191 195 190 184 143 138 128 144 195 149 136 161 209 240 257 245 222 212 202 211 232 227 237 201 200 196 195 208 211 207
308 347 353 300 166 145 127 54 232 154 159 158 169 177 183 188 181 192 189 190 192 187 146 157 132 149 190 158 138 134 146 171 214 241 259 238 230 223 196 206 228 228 205 205 200 200 200 208 218
24 47 19 283 122 223 88 255 167 167 163 170 175 183 190 202 198 201 194 200 176 128 105 74 33 276 192 180 161 124 171 161 170 218 267 248 231 213 200 198 213 182 285 264 214 191 194 218 219
9 293 289 299 251 144 154 248 179 176 173 177 183 190 191 207 215 215 200 176 130 127 130 127 186 204 235 182 76 111 178 261 170 151 336 261 245 225 204 196 218 169 204 200 202 201 182 203 221
284 341 286 268 279 113 166 238 191 175 184 184 190 194 198 198 217 189 160 114 119 138 148 149 187 209 206 75 2 323 276 268 264 105 29 13 236 216 195 206 228 169 196 225 188 212 203 189 202
265 232 243 265 350 87 196 268 191 183 192 187 198 196 202 200 193 128 105 115 125 143 138 162 178 193 105 126 168 7 245 140 301 81 353 23 24 135 159 176 180 161 196 232 221 183 204 213 180
218 240 329 300 341 42 47 327 94 161 214 202 193 195 192 145 145 126 124 134 147 148 132 164 195 170 213 192 108 65 5 135 191 239 2 8 18 165 101 79 350 215 218 232 209 192 201 214 172
220 169 272 239 341 29 22 342 331 217 251 207 205 186 164 166 161 150 150 148 142 151 151 182 199 176 182 80 37 52 292 314 13 9 30 21 56 72 81 84 24 263 227 237 221 192 194 217 190
295 189 196 38 73 219 42 269 303 327 322 148 150 157 159 139 136 140 141 142 169 173 189 206 182 158 106 80 52 113 128 61 42 11 30 51 45 35 23 6 346 304 259 245 231 199 203 164 184
218 141 59 115 96 60 322 73 268 357 331 195 162 158 158 133 152 148 160 160 162 175 182 165 154 131 107 78 76 24 45 23 352 60 70 48 28 20 6 354 328 306 303 270 250 227 206 181 162
118 78 43 52 74 32 275 115 290 278 322 139 140 168 132 151 139 129 122 139 145 162 161 142 152 161 143 74 54 24 19 23 58 57 49 16 12 2 345 337 346 335 333 302 271 240 220 194 185
70 57 356 3 15 214 284 26 243 307 325 258 179 163 154 151 147 138 151 157 157 163 161 158 158 174 171 166 285 290 295 104 107 98 62 35 13 347 354 6 356 350 4 359 12 339 216 200 190
100 142 149 189 192 265 288 265 297 292 292 40 67 129 123 142 150 155 160 146 172 168 176 165 165 160 166 166 236 261 113 101 93 97 85 30 12 25 6 15 2 358 13 26 19 31 9 239 226
188 107 183 102 28 52 282 310 301 332 34 59 102 109 100 102 147 148 153 155 173 173 180 169 156 146 154 140 154 126 130 117 120 114 81 51 58 50 31 38 11 12 25 25 18 38 40 54 59
155 157 77 15 146 245 305 287 232 304 330 338 117 120 124 135 143 162 178 149 163 186 163 137 136 155 157 143 145 136 130 130 131 125 81 79 67 52 45 46 29 23 24 16 36 30 20 49 39
84 114 50 111 115 156 165 273 199 241 280 297 263 187 150 167 174 176 125 137 157 188 141 130 116 137 202 142 132 121 129 129 127 131 115 84 71 55 57 43 46 34 24 15 36 38 32 39 35
142 142 131 121 235 116 145 267 210 225 231 254 331 42 41 8 345 146 139 143 157 153 128 91 64 72 342 291 133 118 144 137 139 143 114 99 85 63 70 56 58 42 25 18 36 57 39 47 38